Time,TemperatureF,DewpointF,PressureIn,WindDirection,WindDirectionDegrees,WindSpeedMPH,WindSpeedGustMPH,Humidity,HourlyPrecipIn,Conditions,Clouds,dailyrainin,SolarRadiationWatts/m^2,SoftwareType,DateUTC
2013-09-09 00:00:00,62.6,45.7,30.08,NE,54,2.0,2.0,54,0.00,,,0.00,0,Wunderground v.1.15,2013-09-09 04:00:00,
2013-09-09 00:05:00,62.5,45.1,30.08,NE,53,3.0,4.0,53,0.00,,,0.00,0,Wunderground v.1.15,2013-09-09 04:05:00,
2013-09-09 00:10:00,62.4,45.5,30.08,ENE,76,2.0,2.0,54,0.00,,,0.00,0,Wunderground v.1.15,2013-09-09 04:10:00,
2013-09-09 00:15:00,62.2,45.3,30.09,East,96,2.0,2.0,54,0.00,,,0.00,0,Wunderground v.1.15,2013-09-09 04:15:00,
2013-09-09 00:20:00,62.0,45.2,30.09,East,80,2.0,2.0,54,0.00,,,0.00,0,Wunderground v.1.15,2013-09-09 04:20:00,
2013-09-09 00:24:00,61.9,45.5,30.09,ENE,78,2.0,2.0,55,0.00,,,0.00,0,Wunderground v.1.15,2013-09-09 04:24:00,
2013-09-09 00:30:00,61.8,45.5,30.09,ENE,65,2.0,2.0,55,0.00,,,0.00,0,Wunderground v.1.15,2013-09-09 04:30:00,
2013-09-09 00:35:00,61.6,45.3,30.09,East,81,1.0,2.0,55,0.00,,,0.00,0,Wunderground v.1.15,2013-09-09 04:35:00,
2013-09-09 00:45:00,61.3,45.5,30.10,East,101,1.0,1.0,56,0.00,,,0.00,0,Wunderground v.1.15,2013-09-09 04:45:00,
2013-09-09 00:55:00,60.9,45.6,30.10,ENE,66,2.0,2.0,57,0.00,,,0.00,0,Wunderground v.1.15,2013-09-09 04:55:00,
2013-09-09 01:05:00,60.7,45.8,30.10,East,84,2.0,2.0,58,0.00,,,0.00,0,Wunderground v.1.15,2013-09-09 05:05:00,
2013-09-09 01:10:00,60.6,46.2,30.11,East,80,2.0,2.0,59,0.00,,,0.00,0,Wunderground v.1.15,2013-09-09 05:10:00,
2013-09-09 01:20:00,60.4,46.4,30.11,East,80,0.0,0.0,60,0.00,,,0.00,0,Wunderground v.1.15,2013-09-09 05:20:00,
2013-09-09 01:30:00,60.0,46.5,30.11,ENE,76,1.0,1.0,61,0.00,,,0.00,0,Wunderground v.1.15,2013-09-09 05:30:00,
2013-09-09 01:35:00,59.6,46.1,30.11,East,81,1.0,1.0,61,0.00,,,0.00,0,Wunderground v.1.15,2013-09-09 05:35:00,
2013-09-09 01:40:00,59.4,46.4,30.11,East,79,1.0,3.0,62,0.00,,,0.00,0,Wunderground v.1.15,2013-09-09 05:40:00,
2013-09-09 01:45:00,59.3,46.3,30.11,ENE,64,1.0,3.0,62,0.00,,,0.00,0,Wunderground v.1.15,2013-09-09 05:45:00,
2013-09-09 01:55:00,58.9,46.7,30.12,ENE,71,0.0,0.0,64,0.00,,,0.00,0,Wunderground v.1.15,2013-09-09 05:55:00,
2013-09-09 02:05:00,58.4,46.7,30.12,ENE,78,0.0,0.0,65,0.00,,,0.00,0,Wunderground v.1.15,2013-09-09 06:05:00,
2013-09-09 02:10:00,58.0,46.7,30.11,ENE,74,0.0,0.0,66,0.00,,,0.00,0,Wunderground v.1.15,2013-09-09 06:10:00,
2013-09-09 02:20:00,57.7,47.2,30.12,ENE,74,0.0,0.0,68,0.00,,,0.00,0,Wunderground v.1.15,2013-09-09 06:20:00,
2013-09-09 02:30:00,57.2,46.7,30.12,ENE,74,0.0,0.0,68,0.00,,,0.00,0,Wunderground v.1.15,2013-09-09 06:30:00,
2013-09-09 02:35:00,56.9,47.2,30.12,ENE,74,0.0,0.0,70,0.00,,,0.00,0,Wunderground v.1.15,2013-09-09 06:35:00,
2013-09-09 02:40:00,56.8,47.1,30.12,ENE,74,0.0,0.0,70,0.00,,,0.00,0,Wunderground v.1.15,2013-09-09 06:40:00,
2013-09-09 02:50:00,56.2,46.9,30.12,ENE,74,0.0,0.0,71,0.00,,,0.00,0,Wunderground v.1.15,2013-09-09 06:50:00,
2013-09-09 02:55:00,55.6,46.7,30.13,ENE,74,0.0,0.0,72,0.00,,,0.00,0,Wunderground v.1.15,2013-09-09 06:55:00,
2013-09-09 03:05:00,55.1,47.3,30.13,ENE,74,0.0,0.0,75,0.00,,,0.00,0,Wunderground v.1.15,2013-09-09 07:05:00,
2013-09-09 03:10:00,55.0,46.9,30.13,ENE,74,0.0,0.0,74,0.00,,,0.00,0,Wunderground v.1.15,2013-09-09 07:10:00,
2013-09-09 03:15:00,54.8,47.0,30.13,ENE,74,0.0,0.0,75,0.00,,,0.00,0,Wunderground v.1.15,2013-09-09 07:15:00,
2013-09-09 03:25:00,54.2,46.8,30.13,ENE,74,0.0,0.0,76,0.00,,,0.00,0,Wunderground v.1.15,2013-09-09 07:25:00,
2013-09-09 03:30:00,54.1,46.7,30.13,ENE,74,0.0,0.0,76,0.00,,,0.00,0,Wunderground v.1.15,2013-09-09 07:30:00,
2013-09-09 03:35:00,53.8,46.8,30.13,ENE,74,0.0,0.0,77,0.00,,,0.00,0,Wunderground v.1.15,2013-09-09 07:35:00,
2013-09-09 03:40:00,53.4,46.7,30.14,ENE,74,0.0,0.0,78,0.00,,,0.00,0,Wunderground v.1.15,2013-09-09 07:40:00,
2013-09-09 03:50:00,52.8,46.8,30.14,ENE,74,0.0,0.0,80,0.00,,,0.00,0,Wunderground v.1.15,2013-09-09 07:50:00,
2013-09-09 04:00:00,52.3,46.3,30.15,ENE,74,0.0,0.0,80,0.00,,,0.00,0,Wunderground v.1.15,2013-09-09 08:00:00,
2013-09-09 04:05:00,52.3,46.3,30.15,ENE,74,0.0,0.0,80,0.00,,,0.00,0,Wunderground v.1.15,2013-09-09 08:05:00,
2013-09-09 04:10:00,52.1,46.1,30.15,N/A,-737280,0.0,-999.0,80,0.00,,,0.00,0,Wunderground v.1.15,2013-09-09 08:10:00,
2013-09-09 04:15:00,52.0,46.3,30.15,ENE,74,0.0,0.0,81,0.00,,,0.00,0,Wunderground v.1.15,2013-09-09 08:15:00,
2013-09-09 04:20:00,51.9,45.9,30.16,ENE,74,0.0,0.0,80,0.00,,,0.00,0,Wunderground v.1.15,2013-09-09 08:20:00,
2013-09-09 04:25:00,52.0,46.3,30.16,N/A,-737280,0.0,-999.0,81,0.00,,,0.00,0,Wunderground v.1.15,2013-09-09 08:25:00,
2013-09-09 04:30:00,51.9,46.6,30.16,ENE,74,0.0,0.0,82,0.00,,,0.00,0,Wunderground v.1.15,2013-09-09 08:30:00,
2013-09-09 04:35:00,51.7,46.1,30.16,N/A,-737280,0.0,-999.0,81,0.00,,,0.00,0,Wunderground v.1.15,2013-09-09 08:35:00,
2013-09-09 04:40:00,51.7,46.1,30.16,ENE,74,0.0,0.0,81,0.00,,,0.00,0,Wunderground v.1.15,2013-09-09 08:40:00,
2013-09-09 04:45:00,51.6,46.0,30.16,ENE,74,0.0,0.0,81,0.00,,,0.00,0,Wunderground v.1.15,2013-09-09 08:45:00,
2013-09-09 04:50:00,51.5,46.2,30.16,ENE,74,0.0,0.0,82,0.00,,,0.00,0,Wunderground v.1.15,2013-09-09 08:50:00,
2013-09-09 04:55:00,51.4,46.1,30.16,ENE,74,0.0,0.0,82,0.00,,,0.00,0,Wunderground v.1.15,2013-09-09 08:55:00,
2013-09-09 05:00:00,51.4,46.1,30.17,N/A,-737280,0.0,-999.0,82,0.00,,,0.00,0,Wunderground v.1.15,2013-09-09 09:00:00,
2013-09-09 05:05:00,51.3,46.0,30.17,ENE,74,0.0,0.0,82,0.00,,,0.00,0,Wunderground v.1.15,2013-09-09 09:05:00,
2013-09-09 05:10:00,51.1,45.8,30.17,N/A,-737280,0.0,-999.0,82,0.00,,,0.00,0,Wunderground v.1.15,2013-09-09 09:10:00,
2013-09-09 05:15:00,50.9,45.9,30.17,ENE,74,0.0,0.0,83,0.00,,,0.00,0,Wunderground v.1.15,2013-09-09 09:15:00,
2013-09-09 05:20:00,50.8,45.8,30.17,N/A,-737280,0.0,-999.0,83,0.00,,,0.00,0,Wunderground v.1.15,2013-09-09 09:20:00,
2013-09-09 05:25:00,50.6,45.9,30.18,N/A,-737280,0.0,-999.0,84,0.00,,,0.00,0,Wunderground v.1.15,2013-09-09 09:25:00,
2013-09-09 05:30:00,50.5,45.8,30.18,N/A,-737280,0.0,-999.0,84,0.00,,,0.00,0,Wunderground v.1.15,2013-09-09 09:30:00,
2013-09-09 05:35:00,50.4,46.1,30.18,N/A,-737280,0.0,-999.0,85,0.00,,,0.00,0,Wunderground v.1.15,2013-09-09 09:35:00,
2013-09-09 05:40:00,50.4,45.7,30.18,N/A,-737280,0.0,-999.0,84,0.00,,,0.00,0,Wunderground v.1.15,2013-09-09 09:40:00,
2013-09-09 05:45:00,50.3,46.0,30.19,N/A,-737280,0.0,-999.0,85,0.00,,,0.00,0,Wunderground v.1.15,2013-09-09 09:45:00,
2013-09-09 05:50:00,50.2,45.9,30.19,N/A,-737280,0.0,-999.0,85,0.00,,,0.00,0,Wunderground v.1.15,2013-09-09 09:50:00,
2013-09-09 05:55:00,50.2,46.2,30.19,N/A,-737280,0.0,-999.0,86,0.00,,,0.00,0,Wunderground v.1.15,2013-09-09 09:55:00,
2013-09-09 06:00:00,50.1,46.1,30.20,N/A,-737280,0.0,-999.0,86,0.00,,,0.00,0,Wunderground v.1.15,2013-09-09 10:00:00,
2013-09-09 06:05:00,50.0,46.0,30.20,N/A,-737280,0.0,-999.0,86,0.00,,,0.00,0,Wunderground v.1.15,2013-09-09 10:05:00,
2013-09-09 06:15:00,49.8,45.8,30.21,N/A,-737280,0.0,-999.0,86,0.00,,,0.00,0,Wunderground v.1.15,2013-09-09 10:15:00,
2013-09-09 06:20:00,49.7,45.7,30.21,N/A,-737280,0.0,-999.0,86,0.00,,,0.00,0,Wunderground v.1.15,2013-09-09 10:20:00,
2013-09-09 06:25:00,49.7,45.7,30.21,N/A,-737280,0.0,-999.0,86,0.00,,,0.00,0,Wunderground v.1.15,2013-09-09 10:25:00,
2013-09-09 06:30:00,49.6,45.6,30.21,N/A,-737280,0.0,-999.0,86,0.00,,,0.00,0,Wunderground v.1.15,2013-09-09 10:30:00,
2013-09-09 06:35:00,49.6,45.6,30.22,N/A,-737280,0.0,-999.0,86,0.00,,,0.00,5,Wunderground v.1.15,2013-09-09 10:35:00,
2013-09-09 06:40:00,49.5,45.8,30.21,N/A,-737280,0.0,-999.0,87,0.00,,,0.00,7,Wunderground v.1.15,2013-09-09 10:40:00,
2013-09-09 06:45:00,49.4,45.4,30.22,N/A,-737280,0.0,-999.0,86,0.00,,,0.00,10,Wunderground v.1.15,2013-09-09 10:45:00,
2013-09-09 06:50:00,49.4,45.7,30.22,N/A,-737280,0.0,-999.0,87,0.00,,,0.00,12,Wunderground v.1.15,2013-09-09 10:50:00,
2013-09-09 06:55:00,49.4,45.7,30.22,N/A,-737280,0.0,-999.0,87,0.00,,,0.00,16,Wunderground v.1.15,2013-09-09 10:55:00,
2013-09-09 07:00:00,49.4,46.0,30.22,N/A,-737280,0.0,-999.0,88,0.00,,,0.00,19,Wunderground v.1.15,2013-09-09 11:00:00,
2013-09-09 07:05:00,49.5,46.1,30.22,N/A,-737280,0.0,-999.0,88,0.00,,,0.00,21,Wunderground v.1.15,2013-09-09 11:05:00,
2013-09-09 07:10:00,49.6,46.2,30.22,N/A,-737280,0.0,-999.0,88,0.00,,,0.00,23,Wunderground v.1.15,2013-09-09 11:10:00,
2013-09-09 07:15:00,49.7,46.3,30.23,N/A,-737280,0.0,-999.0,88,0.00,,,0.00,47,Wunderground v.1.15,2013-09-09 11:15:00,
2013-09-09 07:20:00,49.9,46.8,30.23,N/A,-737280,0.0,-999.0,89,0.00,,,0.00,26,Wunderground v.1.15,2013-09-09 11:20:00,
2013-09-09 07:25:00,50.2,47.1,30.23,ENE,68,0.0,-999.0,89,0.00,,,0.00,32,Wunderground v.1.15,2013-09-09 11:25:00,
2013-09-09 07:30:00,51.2,47.8,30.23,East,90,0.0,-999.0,88,0.00,,,0.00,28,Wunderground v.1.15,2013-09-09 11:30:00,
2013-09-09 07:35:00,52.1,48.0,30.24,East,90,0.0,-999.0,86,0.00,,,0.00,28,Wunderground v.1.15,2013-09-09 11:35:00,
2013-09-09 07:40:00,52.7,48.6,30.23,N/A,-737280,0.0,-999.0,86,0.00,,,0.00,32,Wunderground v.1.15,2013-09-09 11:40:00,
2013-09-09 07:45:00,53.4,48.7,30.24,ENE,68,2.0,-999.0,84,0.00,,,0.00,33,Wunderground v.1.15,2013-09-09 11:45:00,
2013-09-09 07:50:00,54.4,49.0,30.24,N/A,-737280,0.0,-999.0,82,0.00,,,0.00,33,Wunderground v.1.15,2013-09-09 11:50:00,
2013-09-09 07:55:00,55.2,49.5,30.24,ENE,68,0.0,-999.0,81,0.00,,,0.00,33,Wunderground v.1.15,2013-09-09 11:55:00,
2013-09-09 08:00:00,55.8,49.7,30.24,ENE,68,1.0,-999.0,80,0.00,,,0.00,33,Wunderground v.1.15,2013-09-09 12:00:00,
2013-09-09 08:05:00,56.2,49.8,30.24,ENE,68,1.0,-999.0,79,0.00,,,0.00,35,Wunderground v.1.15,2013-09-09 12:05:00,
2013-09-09 08:10:00,56.9,49.8,30.24,ENE,68,1.0,-999.0,77,0.00,,,0.00,37,Wunderground v.1.15,2013-09-09 12:10:00,
2013-09-09 08:15:00,57.5,49.6,30.24,ENE,68,0.0,-999.0,75,0.00,,,0.00,39,Wunderground v.1.15,2013-09-09 12:15:00,
2013-09-09 08:20:00,58.0,50.1,30.24,East,90,3.0,-999.0,75,0.00,,,0.00,39,Wunderground v.1.15,2013-09-09 12:20:00,
2013-09-09 08:25:00,58.3,49.7,30.24,East,90,3.0,-999.0,73,0.00,,,0.00,40,Wunderground v.1.15,2013-09-09 12:25:00,
2013-09-09 08:30:00,58.7,50.1,30.24,East,90,1.0,-999.0,73,0.00,,,0.00,41,Wunderground v.1.15,2013-09-09 12:30:00,
2013-09-09 08:35:00,59.0,50.0,30.25,East,90,1.0,-999.0,72,0.00,,,0.00,42,Wunderground v.1.15,2013-09-09 12:35:00,
2013-09-09 08:40:00,59.3,49.9,30.24,East,90,1.0,-999.0,71,0.00,,,0.00,42,Wunderground v.1.15,2013-09-09 12:40:00,
2013-09-09 08:45:00,59.6,50.2,30.25,East,90,1.0,-999.0,71,0.00,,,0.00,44,Wunderground v.1.15,2013-09-09 12:45:00,
2013-09-09 08:50:00,60.0,49.8,30.25,East,90,2.0,-999.0,69,0.00,,,0.00,46,Wunderground v.1.15,2013-09-09 12:50:00,
2013-09-09 08:55:00,60.4,49.8,30.25,East,90,2.0,-999.0,68,0.00,,,0.00,46,Wunderground v.1.15,2013-09-09 12:55:00,
2013-09-09 09:00:00,60.6,49.2,30.25,East,90,1.0,-999.0,66,0.00,,,0.00,59,Wunderground v.1.15,2013-09-09 13:00:00,
2013-09-09 09:05:00,60.8,48.1,30.25,ENE,68,1.0,-999.0,63,0.00,,,0.00,47,Wunderground v.1.15,2013-09-09 13:05:00,
2013-09-09 09:10:00,60.9,47.4,30.25,ENE,68,1.0,-999.0,61,0.00,,,0.00,49,Wunderground v.1.15,2013-09-09 13:10:00,
2013-09-09 09:15:00,61.2,48.5,30.25,East,90,0.0,-999.0,63,0.00,,,0.00,49,Wunderground v.1.15,2013-09-09 13:15:00,
2013-09-09 09:20:00,61.5,47.9,30.25,ENE,68,1.0,-999.0,61,0.00,,,0.00,49,Wunderground v.1.15,2013-09-09 13:20:00,
2013-09-09 09:25:00,61.6,47.1,30.25,East,90,1.0,-999.0,59,0.00,,,0.00,51,Wunderground v.1.15,2013-09-09 13:25:00,
2013-09-09 09:30:00,61.7,47.7,30.25,ENE,68,1.0,-999.0,60,0.00,,,0.00,102,Wunderground v.1.15,2013-09-09 13:30:00,
2013-09-09 09:35:00,61.9,48.7,30.25,ENE,68,1.0,-999.0,62,0.00,,,0.00,63,Wunderground v.1.15,2013-09-09 13:35:00,
2013-09-09 09:40:00,62.0,47.5,30.25,ESE,113,2.0,-999.0,59,0.00,,,0.00,53,Wunderground v.1.15,2013-09-09 13:40:00,
2013-09-09 09:45:00,62.2,48.1,30.25,East,90,0.0,-999.0,60,0.00,,,0.00,53,Wunderground v.1.15,2013-09-09 13:45:00,
2013-09-09 09:50:00,62.5,48.4,30.25,ENE,68,0.0,-999.0,60,0.00,,,0.00,54,Wunderground v.1.15,2013-09-09 13:50:00,
2013-09-09 09:55:00,62.7,47.7,30.25,ENE,68,0.0,-999.0,58,0.00,,,0.00,63,Wunderground v.1.15,2013-09-09 13:55:00,
2013-09-09 10:00:00,63.0,47.5,30.25,South,180,0.0,-999.0,57,0.00,,,0.00,120,Wunderground v.1.15,2013-09-09 14:00:00,
2013-09-09 10:05:00,63.2,47.2,30.25,SSW,203,0.0,-999.0,56,0.00,,,0.00,225,Wunderground v.1.15,2013-09-09 14:05:00,
2013-09-09 10:10:00,63.4,47.9,30.25,ESE,113,0.0,-999.0,57,0.00,,,0.00,148,Wunderground v.1.15,2013-09-09 14:10:00,
2013-09-09 10:15:00,63.8,48.3,30.25,SSW,203,1.0,-999.0,57,0.00,,,0.00,292,Wunderground v.1.15,2013-09-09 14:15:00,
2013-09-09 10:20:00,64.1,49.0,30.25,East,90,1.0,-999.0,58,0.00,,,0.00,387,Wunderground v.1.15,2013-09-09 14:20:00,
2013-09-09 10:25:00,64.4,47.9,30.24,SSW,203,1.0,-999.0,55,0.00,,,0.00,650,Wunderground v.1.15,2013-09-09 14:25:00,
2013-09-09 10:30:00,64.7,50.0,30.25,ESE,113,0.0,-999.0,59,0.00,,,0.00,149,Wunderground v.1.15,2013-09-09 14:30:00,
2013-09-09 10:35:00,65.0,48.9,30.25,ENE,68,2.0,-999.0,56,0.00,,,0.00,125,Wunderground v.1.15,2013-09-09 14:35:00,
2013-09-09 10:40:00,65.2,50.0,30.25,SSE,158,1.0,-999.0,58,0.00,,,0.00,100,Wunderground v.1.15,2013-09-09 14:40:00,
2013-09-09 10:45:00,65.4,47.8,30.25,SE,135,1.0,-999.0,53,0.00,,,0.00,90,Wunderground v.1.15,2013-09-09 14:45:00,
2013-09-09 10:50:00,65.5,49.9,30.25,South,180,1.0,-999.0,57,0.00,,,0.00,95,Wunderground v.1.15,2013-09-09 14:50:00,
2013-09-09 11:00:00,65.6,48.5,30.25,SW,225,1.0,1.0,54,0.00,,,0.00,128,Wunderground v.1.15,2013-09-09 15:00:00,
2013-09-09 11:10:00,65.6,49.0,30.25,South,169,0.0,0.0,55,0.00,,,0.00,127,Wunderground v.1.15,2013-09-09 15:10:00,
2013-09-09 11:15:00,65.8,48.7,30.25,SSE,162,1.0,3.0,54,0.00,,,0.00,149,Wunderground v.1.15,2013-09-09 15:15:00,
2013-09-09 11:25:00,66.2,50.0,30.25,South,181,1.0,4.0,56,0.00,,,0.00,670,Wunderground v.1.15,2013-09-09 15:25:00,
2013-09-09 11:30:00,66.2,50.0,30.25,SSW,205,1.0,1.0,56,0.00,,,0.00,733,Wunderground v.1.15,2013-09-09 15:30:00,
2013-09-09 11:40:00,66.6,47.9,30.25,South,183,1.0,1.0,51,0.00,,,0.00,708,Wunderground v.1.15,2013-09-09 15:40:00,
2013-09-09 11:50:00,67.4,47.6,30.25,SSW,200,1.0,1.0,49,0.00,,,0.00,633,Wunderground v.1.15,2013-09-09 15:50:00,
2013-09-09 12:00:00,67.8,49.5,30.25,South,186,1.0,2.0,52,0.00,,,0.00,714,Wunderground v.1.15,2013-09-09 16:00:00,
2013-09-09 12:10:00,67.8,49.0,30.25,SW,218,1.0,1.0,51,0.00,,,0.00,782,Wunderground v.1.15,2013-09-09 16:10:00,
2013-09-09 12:15:00,67.9,48.6,30.24,SSW,206,1.0,1.0,50,0.00,,,0.00,784,Wunderground v.1.15,2013-09-09 16:15:00,
2013-09-09 12:25:00,68.1,48.2,30.24,SW,214,1.0,1.0,49,0.00,,,0.00,809,Wunderground v.1.15,2013-09-09 16:25:00,
2013-09-09 12:35:00,68.2,49.4,30.24,SSW,207,1.0,1.0,51,0.00,,,0.00,722,Wunderground v.1.15,2013-09-09 16:35:00,
2013-09-09 12:45:00,68.5,50.2,30.24,SSW,194,1.0,1.0,52,0.00,,,0.00,622,Wunderground v.1.15,2013-09-09 16:45:00,
2013-09-09 12:55:00,69.0,49.0,30.24,South,170,1.0,1.0,49,0.00,,,0.00,645,Wunderground v.1.15,2013-09-09 16:55:00,
2013-09-09 13:00:00,69.0,50.6,30.24,SW,217,1.0,1.0,52,0.00,,,0.00,689,Wunderground v.1.15,2013-09-09 17:00:00,
2013-09-09 13:05:00,68.9,51.1,30.24,SSW,196,1.0,1.0,53,0.00,,,0.00,691,Wunderground v.1.15,2013-09-09 17:05:00,
2013-09-09 13:20:00,68.7,49.8,30.24,South,186,1.0,1.0,51,0.00,,,0.00,622,Wunderground v.1.15,2013-09-09 17:20:00,
2013-09-09 13:25:00,68.9,50.0,30.23,SSW,205,1.0,1.0,51,0.00,,,0.00,571,Wunderground v.1.15,2013-09-09 17:25:00,
2013-09-09 13:35:00,69.7,50.8,30.23,SSW,203,1.0,5.0,51,0.00,,,0.00,666,Wunderground v.1.15,2013-09-09 17:35:00,
2013-09-09 13:40:00,69.9,49.9,30.23,South,175,1.0,1.0,49,0.00,,,0.00,585,Wunderground v.1.15,2013-09-09 17:40:00,
2013-09-09 13:50:00,69.9,50.4,30.23,WSW,248,1.0,1.0,50,0.00,,,0.00,624,Wunderground v.1.15,2013-09-09 17:50:00,
2013-09-09 14:00:00,70.0,50.0,30.23,South,178,1.0,2.0,49,0.00,,,0.00,564,Wunderground v.1.15,2013-09-09 18:00:00,
2013-09-09 14:10:00,70.1,50.6,30.23,SSW,196,1.0,1.0,50,0.00,,,0.00,515,Wunderground v.1.15,2013-09-09 18:10:00,
2013-09-09 14:15:00,69.9,50.4,30.22,SSW,192,1.0,1.0,50,0.00,,,0.00,476,Wunderground v.1.15,2013-09-09 18:15:00,
2013-09-09 14:25:00,70.1,50.6,30.22,South,187,0.0,1.0,50,0.00,,,0.00,540,Wunderground v.1.15,2013-09-09 18:25:00,
2013-09-09 14:30:00,69.9,50.9,30.22,SSE,157,1.0,1.0,51,0.00,,,0.00,415,Wunderground v.1.15,2013-09-09 18:30:00,
2013-09-09 14:40:00,69.5,50.6,30.21,South,186,1.0,2.0,51,0.00,,,0.00,288,Wunderground v.1.15,2013-09-09 18:40:00,
2013-09-09 14:45:00,69.4,49.9,30.21,SW,216,1.0,2.0,50,0.00,,,0.00,197,Wunderground v.1.15,2013-09-09 18:45:00,
2013-09-09 14:55:00,68.9,50.5,30.22,SSW,192,1.0,6.0,52,0.00,,,0.00,304,Wunderground v.1.15,2013-09-09 18:55:00,
2013-09-09 15:00:00,68.6,49.2,30.22,South,186,1.0,1.0,50,0.00,,,0.00,183,Wunderground v.1.15,2013-09-09 19:00:00,
2013-09-09 15:10:00,68.1,49.8,30.22,SSW,196,1.0,1.0,52,0.00,,,0.00,241,Wunderground v.1.15,2013-09-09 19:10:00,
2013-09-09 15:15:00,68.0,49.7,30.22,South,185,1.0,1.0,52,0.00,,,0.00,207,Wunderground v.1.15,2013-09-09 19:15:00,
2013-09-09 15:20:00,68.0,49.7,30.22,SSW,192,1.0,1.0,52,0.00,,,0.00,244,Wunderground v.1.15,2013-09-09 19:20:00,
2013-09-09 15:25:00,67.8,49.0,30.22,South,190,1.0,1.0,51,0.00,,,0.00,274,Wunderground v.1.15,2013-09-09 19:25:00,
2013-09-09 15:35:00,67.7,49.9,30.22,South,175,1.0,1.0,53,0.00,,,0.00,227,Wunderground v.1.15,2013-09-09 19:35:00,
2013-09-09 15:45:00,67.8,49.5,30.21,South,185,1.0,1.0,52,0.00,,,0.00,345,Wunderground v.1.15,2013-09-09 19:45:00,
2013-09-09 15:55:00,68.1,48.8,30.22,SSW,196,1.0,1.0,50,0.00,,,0.00,181,Wunderground v.1.15,2013-09-09 19:55:00,
2013-09-09 16:05:00,68.0,49.2,30.22,South,180,1.0,1.0,51,0.00,,,0.00,494,Wunderground v.1.15,2013-09-09 20:05:00,
2013-09-09 16:10:00,68.3,50.5,30.22,SW,229,1.0,1.0,53,0.00,,,0.00,490,Wunderground v.1.15,2013-09-09 20:10:00,
2013-09-09 16:20:00,68.9,49.5,30.22,SSW,192,1.0,1.0,50,0.00,,,0.00,468,Wunderground v.1.15,2013-09-09 20:20:00,
2013-09-09 16:25:00,69.2,50.3,30.22,SSW,200,1.0,1.0,51,0.00,,,0.00,366,Wunderground v.1.15,2013-09-09 20:25:00,
2013-09-09 16:30:00,69.3,49.3,30.22,SSW,197,1.0,4.0,49,0.00,,,0.00,436,Wunderground v.1.15,2013-09-09 20:30:00,
2013-09-09 16:35:00,69.3,50.4,30.22,SSW,195,1.0,4.0,51,0.00,,,0.00,207,Wunderground v.1.15,2013-09-09 20:35:00,
2013-09-09 16:45:00,69.0,50.6,30.22,South,189,0.0,1.0,52,0.00,,,0.00,137,Wunderground v.1.15,2013-09-09 20:45:00,
2013-09-09 16:55:00,68.5,50.7,30.22,WSW,243,1.0,1.0,53,0.00,,,0.00,144,Wunderground v.1.15,2013-09-09 20:55:00,
2013-09-09 17:00:00,68.4,50.6,30.21,South,181,0.0,0.0,53,0.00,,,0.00,141,Wunderground v.1.15,2013-09-09 21:00:00,
2013-09-09 17:05:00,68.1,49.8,30.21,South,189,0.0,1.0,52,0.00,,,0.00,130,Wunderground v.1.15,2013-09-09 21:05:00,
2013-09-09 17:15:00,68.0,50.2,30.21,South,177,0.0,0.0,53,0.00,,,0.00,185,Wunderground v.1.15,2013-09-09 21:15:00,
2013-09-09 17:20:00,67.9,51.1,30.21,SW,227,1.0,1.0,55,0.00,,,0.00,200,Wunderground v.1.15,2013-09-09 21:20:00,
2013-09-09 17:30:00,68.0,50.2,30.20,South,183,0.0,0.0,53,0.00,,,0.00,98,Wunderground v.1.15,2013-09-09 21:30:00,
2013-09-09 17:35:00,67.9,50.1,30.20,SSE,160,0.0,1.0,53,0.00,,,0.00,62,Wunderground v.1.15,2013-09-09 21:35:00,
2013-09-09 17:44:00,67.6,50.9,30.19,SSE,165,0.0,5.0,55,0.00,,,0.00,114,Wunderground v.1.15,2013-09-09 21:44:00,
2013-09-09 17:50:00,67.5,51.2,30.20,South,184,0.0,0.0,56,0.00,,,0.00,77,Wunderground v.1.15,2013-09-09 21:50:00,
2013-09-09 17:55:00,67.4,50.7,30.19,SSW,202,0.0,0.0,55,0.00,,,0.00,51,Wunderground v.1.15,2013-09-09 21:55:00,
2013-09-09 18:05:00,67.0,49.8,30.19,SW,217,1.0,1.0,54,0.00,,,0.00,54,Wunderground v.1.15,2013-09-09 22:05:00,
2013-09-09 18:10:00,66.7,50.0,30.19,SSW,192,0.0,0.0,55,0.00,,,0.00,42,Wunderground v.1.15,2013-09-09 22:10:00,
2013-09-09 18:20:00,66.4,50.7,30.19,South,182,0.0,0.0,57,0.00,,,0.00,33,Wunderground v.1.15,2013-09-09 22:20:00,
2013-09-09 18:25:00,66.3,51.1,30.19,SSW,198,0.0,0.0,58,0.00,,,0.00,28,Wunderground v.1.15,2013-09-09 22:25:00,
2013-09-09 18:35:00,66.0,51.3,30.20,South,178,0.0,0.0,59,0.00,,,0.00,25,Wunderground v.1.15,2013-09-09 22:35:00,
2013-09-09 18:45:00,65.7,51.9,30.20,SSE,161,0.0,0.0,61,0.00,,,0.00,16,Wunderground v.1.15,2013-09-09 22:45:00,
2013-09-09 18:55:00,65.3,51.1,30.19,South,175,0.0,0.0,60,0.00,,,0.00,9,Wunderground v.1.15,2013-09-09 22:55:00,
2013-09-09 19:05:00,65.0,51.7,30.19,South,176,1.0,2.0,62,0.00,,,0.00,0,Wunderground v.1.15,2013-09-09 23:05:00,
2013-09-09 19:15:00,64.7,52.2,30.19,SSW,194,0.0,0.0,64,0.00,,,0.00,0,Wunderground v.1.15,2013-09-09 23:15:00,
2013-09-09 19:20:00,64.5,52.0,30.19,SSW,200,0.0,0.0,64,0.00,,,0.00,0,Wunderground v.1.15,2013-09-09 23:20:00,
2013-09-09 19:29:00,64.3,52.3,30.19,SSE,157,0.0,0.0,65,0.00,,,0.00,0,Wunderground v.1.15,2013-09-09 23:29:00,
2013-09-09 19:35:00,64.2,52.6,30.19,SSW,213,0.0,0.0,66,0.00,,,0.00,0,Wunderground v.1.15,2013-09-09 23:35:00,
2013-09-09 19:45:00,64.0,52.4,30.19,SSE,161,0.0,4.0,66,0.00,,,0.00,0,Wunderground v.1.15,2013-09-09 23:45:00,
2013-09-09 19:50:00,63.9,52.7,30.18,South,185,0.0,0.0,67,0.00,,,0.00,0,Wunderground v.1.15,2013-09-09 23:50:00,
2013-09-09 20:00:00,63.8,52.6,30.19,South,180,0.0,1.0,67,0.00,,,0.00,0,Wunderground v.1.15,2013-09-10 00:00:00,
2013-09-09 20:05:00,63.7,52.5,30.19,SSW,211,0.0,1.0,67,0.00,,,0.00,0,Wunderground v.1.15,2013-09-10 00:05:00,
2013-09-09 20:15:00,63.6,52.8,30.19,South,183,0.0,0.0,68,0.00,,,0.00,0,Wunderground v.1.15,2013-09-10 00:15:00,
2013-09-09 20:20:00,63.6,53.2,30.19,South,184,0.0,3.0,69,0.00,,,0.00,0,Wunderground v.1.15,2013-09-10 00:20:00,
2013-09-09 20:30:00,63.6,53.2,30.19,SSW,197,0.0,0.0,69,0.00,,,0.00,0,Wunderground v.1.15,2013-09-10 00:30:00,
2013-09-09 20:40:00,63.7,53.7,30.19,South,186,0.0,0.0,70,0.00,,,0.00,0,Wunderground v.1.15,2013-09-10 00:40:00,
2013-09-09 20:50:00,63.8,54.2,30.20,South,176,0.0,1.0,71,0.00,,,0.00,0,Wunderground v.1.15,2013-09-10 00:50:00,
2013-09-09 21:00:00,63.8,54.2,30.19,South,184,0.0,0.0,71,0.00,,,0.00,0,Wunderground v.1.15,2013-09-10 01:00:00,
2013-09-09 21:10:00,63.8,54.6,30.19,South,175,0.0,0.0,72,0.00,,,0.00,0,Wunderground v.1.15,2013-09-10 01:10:00,
2013-09-09 21:15:00,63.8,54.6,30.19,South,171,0.0,0.0,72,0.00,,,0.00,0,Wunderground v.1.15,2013-09-10 01:15:00,
2013-09-09 21:25:00,63.8,54.6,30.19,South,185,0.0,0.0,72,0.00,,,0.00,0,Wunderground v.1.15,2013-09-10 01:25:00,
2013-09-09 21:30:00,63.8,54.6,30.19,SSW,207,0.0,1.0,72,0.00,,,0.00,0,Wunderground v.1.15,2013-09-10 01:30:00,
2013-09-09 21:34:00,63.9,54.7,30.19,N/A,-737280,0.0,-999.0,72,0.00,,,0.00,0,Wunderground v.1.15,2013-09-10 01:34:00,
2013-09-09 21:39:00,63.9,55.1,30.19,South,180,0.0,-999.0,73,0.00,,,0.00,0,Wunderground v.1.15,2013-09-10 01:39:00,
2013-09-09 21:40:00,63.9,55.1,30.19,South,188,0.0,0.0,73,0.00,,,0.00,0,Wunderground v.1.15,2013-09-10 01:40:00,
2013-09-09 21:44:00,64.0,55.2,30.19,South,180,1.0,-999.0,73,0.00,,,0.00,0,Wunderground v.1.15,2013-09-10 01:44:00,
2013-09-09 21:49:00,64.1,55.3,30.19,N/A,-737280,0.0,-999.0,73,0.00,,,0.00,0,Wunderground v.1.15,2013-09-10 01:49:00,
2013-09-09 21:50:00,64.1,55.3,30.19,SSE,156,0.0,0.0,73,0.00,,,0.00,0,Wunderground v.1.15,2013-09-10 01:50:00,
2013-09-09 21:54:00,64.2,55.4,30.19,South,180,1.0,-999.0,73,0.00,,,0.00,0,Wunderground v.1.15,2013-09-10 01:54:00,
2013-09-09 21:55:00,64.2,55.4,30.19,South,189,0.0,0.0,73,0.00,,,0.00,0,Wunderground v.1.15,2013-09-10 01:55:00,
2013-09-09 21:59:00,64.3,55.5,30.19,South,180,0.0,-999.0,73,0.00,,,0.00,0,Wunderground v.1.15,2013-09-10 01:59:00,
2013-09-09 22:04:00,64.4,55.6,30.19,N/A,-737280,0.0,-999.0,73,0.00,,,0.00,0,Wunderground v.1.15,2013-09-10 02:04:00,
2013-09-09 22:05:00,64.3,55.5,30.19,South,191,0.0,1.0,73,0.00,,,0.00,0,Wunderground v.1.15,2013-09-10 02:05:00,
2013-09-09 22:09:00,64.4,55.6,30.19,N/A,-737280,0.0,-999.0,73,0.00,,,0.00,0,Wunderground v.1.15,2013-09-10 02:09:00,
2013-09-09 22:10:00,64.4,55.6,30.19,South,180,0.0,0.0,73,0.00,,,0.00,0,Wunderground v.1.15,2013-09-10 02:10:00,
2013-09-09 22:14:00,64.5,56.0,30.19,South,180,0.0,-999.0,74,0.00,,,0.00,0,Wunderground v.1.15,2013-09-10 02:14:00,
2013-09-09 22:19:00,64.5,55.7,30.19,South,180,1.0,-999.0,73,0.00,,,0.00,0,Wunderground v.1.15,2013-09-10 02:19:00,
2013-09-09 22:20:00,64.5,56.0,30.19,South,171,0.0,1.0,74,0.00,,,0.00,0,Wunderground v.1.15,2013-09-10 02:20:00,
2013-09-09 22:24:00,64.6,55.7,30.19,SSW,203,1.0,-999.0,73,0.00,,,0.00,0,Wunderground v.1.15,2013-09-10 02:24:00,
2013-09-09 22:29:00,64.6,56.1,30.19,SSW,203,0.0,-999.0,74,0.00,,,0.00,0,Wunderground v.1.15,2013-09-10 02:29:00,
2013-09-09 22:30:00,64.6,56.1,30.19,SSW,198,0.0,0.0,74,0.00,,,0.00,0,Wunderground v.1.15,2013-09-10 02:30:00,
2013-09-09 22:34:00,64.7,56.2,30.19,South,180,0.0,-999.0,74,0.00,,,0.00,0,Wunderground v.1.15,2013-09-10 02:34:00,
2013-09-09 22:35:00,64.7,56.2,30.19,South,181,0.0,0.0,74,0.00,,,0.00,0,Wunderground v.1.15,2013-09-10 02:35:00,
2013-09-09 22:39:00,64.7,56.2,30.19,South,180,0.0,-999.0,74,0.00,,,0.00,0,Wunderground v.1.15,2013-09-10 02:39:00,
2013-09-09 22:44:00,64.8,56.7,30.19,South,180,1.0,-999.0,75,0.00,,,0.00,0,Wunderground v.1.15,2013-09-10 02:44:00,
2013-09-09 22:45:00,64.8,56.7,30.19,South,171,0.0,1.0,75,0.00,,,0.00,0,Wunderground v.1.15,2013-09-10 02:45:00,
2013-09-09 22:49:00,64.9,56.8,30.19,N/A,-737280,0.0,-999.0,75,0.00,,,0.00,0,Wunderground v.1.15,2013-09-10 02:49:00,
2013-09-09 22:50:00,64.9,56.8,30.19,SSW,201,1.0,1.0,75,0.00,,,0.00,0,Wunderground v.1.15,2013-09-10 02:50:00,
2013-09-09 22:54:00,64.9,56.4,30.19,SSE,158,1.0,-999.0,74,0.00,,,0.00,0,Wunderground v.1.15,2013-09-10 02:54:00,
2013-09-09 22:59:00,64.9,56.4,30.19,SSW,203,0.0,-999.0,74,0.00,,,0.00,0,Wunderground v.1.15,2013-09-10 02:59:00,
2013-09-09 23:00:00,64.9,56.4,30.19,WSW,252,1.0,1.0,74,0.00,,,0.00,0,Wunderground v.1.15,2013-09-10 03:00:00,
2013-09-09 23:04:00,65.0,56.5,30.18,WSW,248,0.0,-999.0,74,0.00,,,0.00,0,Wunderground v.1.15,2013-09-10 03:04:00,
2013-09-09 23:09:00,65.0,56.9,30.18,South,180,1.0,-999.0,75,0.00,,,0.00,0,Wunderground v.1.15,2013-09-10 03:09:00,
2013-09-09 23:14:00,65.1,57.0,30.18,South,180,1.0,-999.0,75,0.00,,,0.00,0,Wunderground v.1.15,2013-09-10 03:14:00,
2013-09-09 23:19:00,65.1,57.3,30.18,SW,225,0.0,-999.0,76,0.00,,,0.00,0,Wunderground v.1.15,2013-09-10 03:19:00,
2013-09-09 23:24:00,65.1,57.3,30.18,South,180,0.0,-999.0,76,0.00,,,0.00,0,Wunderground v.1.15,2013-09-10 03:24:00,
2013-09-09 23:29:00,65.1,57.3,30.18,South,180,1.0,-999.0,76,0.00,,,0.00,0,Wunderground v.1.15,2013-09-10 03:29:00,
2013-09-09 23:34:00,65.2,57.4,30.19,South,180,0.0,-999.0,76,0.00,,,0.00,0,Wunderground v.1.15,2013-09-10 03:34:00,
2013-09-09 23:39:00,65.2,57.4,30.19,South,180,0.0,-999.0,76,0.00,,,0.00,0,Wunderground v.1.15,2013-09-10 03:39:00,
2013-09-09 23:44:00,65.2,57.8,30.19,South,180,0.0,-999.0,77,0.00,,,0.00,0,Wunderground v.1.15,2013-09-10 03:44:00,
2013-09-09 23:49:00,65.2,57.4,30.18,WSW,248,2.0,-999.0,76,0.00,,,0.00,0,Wunderground v.1.15,2013-09-10 03:49:00,
2013-09-09 23:54:00,65.2,57.4,30.18,SSW,203,1.0,-999.0,76,0.00,,,0.00,0,Wunderground v.1.15,2013-09-10 03:54:00,
2013-09-09 23:59:00,65.2,57.8,30.18,SSW,203,2.0,-999.0,77,0.00,,,0.00,0,Wunderground v.1.15,2013-09-10 03:59:00,